アトラス彗星

C/2021 Q3 ( ATLAS )

English version
Home page
Updated on March 27, 2023

---------------------------------------------------------------------

・ プロフィール

発見日 2021年8月26日
発見光度 19.0等
発見者 Asteroid Terrestrial-Impact Last Alert System (ATLAS) search program

・ 写真集

・ 軌道要素

Epoch 2022 Aug. 9.0 TT = JDT 2459800.5
T 2022 Jan. 26.10161 TT                                 Rudenko
q   5.2046308            (2000.0)            P               Q
z  +0.0132919      Peri.  114.09103     -0.09823461     -0.62906034
 +/-0.0000023      Node   307.90588     +0.04957325     +0.77081712
e   0.9308207      Incl.   77.77350     +0.99392779     -0.10061838
>From 149 observations 2021 Aug. 19-2022 Oct. 25, mean residual 0".5.

・ 光度変化

        m1 = 7.5 + 5 logΔ + 10.0 log r

---------------------------------------------------------------------

軌道要素はM.P.E.C. 2022-U349に掲載されたものです。
光度グラフはComet for Windowsで作成したものです。

---------------------------------------------------------------------

Copyright(C) Seiichi Yoshida (comet@aerith.net). All rights reserved.